Regional Weather Roundup
Issued by NWS

Home | Current Version | Previous Version | Text Only | Print | Product List | Glossary Off
Versions: 1 2 3 4 5 6 7 8 9 10 11 12 13 14 15 16 17 18 19 20 21 22 23 24 25 26 27 28 29 30 31 32 33 34 35 36 37 38 39 40 41 42 43 44 45 46 47 48 49 50

000
ASUS43 KDTX 271601
RWRMI
MICHIGAN HOURLY REGIONAL WEATHER ROUNDUP
NATIONAL WEATHER SERVICE DETROIT/PONTIAC MI
1200 PM EDT FRI MAY 27 2016

NOTE: "FAIR" INDICATES FEW OR NO CLOUDS BELOW 12,000 FEET WITH NO
SIGNIFICANT WEATHER AND/OR OBSTRUCTION TO VISIBILITY.

MIZ047>049-052>055-059>063-066>070-074>076-081>083-271700-
SOUTHEAST LOWER MICHIGAN

CITY           SKY/WX    TMP DP  RH WIND       PRES   REMARKS
ADRIAN         CLOUDY    79  62  56 S9        30.00S
ALMA           MOSUNNY   76  68  76 CALM      29.97S
ANN ARBOR      SUNNY     79  66  64 S8        29.99R
BAD AXE        PTSUNNY   78  66  65 E3        29.98S
CARO           MOSUNNY   80  64  57 CALM      29.97R
DETROIT CITY   SUNNY     81  65  58 S7        29.98S
DETROIT        MOSUNNY   80  64  58 S8        30.00R
FLINT          MOSUNNY   84  64  50 VRB5      29.98R
GROSSE ILE     SUNNY     73  66  78 S12       29.99R
HILLSDALE      MOSUNNY   75  60  60 S7        30.01R
HOWELL         MOSUNNY   79  66  65 S6        29.99R

CITY           SKY/WX    TMP DP  RH WIND       PRES   REMARKS
JACKSON        MOSUNNY   78  64  61 S9        29.99R
LAMBERTVILLE   MOSUNNY   80  64  57 W5        30.01R
LANSING        CLOUDY    78  67  68 SE7       29.97F
LAPEER         FAIR      79  60  51 CALM      29.99R
MASON          CLOUDY    80  65  60 S6        29.98R
MONROE         SUNNY     79  65  62 SW6       29.99S
PONTIAC        PTSUNNY   81  64  56 S7        29.98R
PORT HOPE        N/A     53  53 100 E9        29.99R
PORT HURON     PTSUNNY   81  64  57 S6        29.98R
TRI CITIES     CLOUDY    81  63  54 VRB6      29.98R
MIDLAND        FAIR      80  65  60 SE6       29.97R
TROY           MOSUNNY   83  64  52 SW5       30.00S
SAGINAW HB     CLOUDY    81  61  50 S6        29.97R
$$
MIZ043>046-050>051-056>058-064>065-071>073-077>080-271700-
SOUTHWEST LOWER MICHIGAN

CITY           SKY/WX    TMP DP  RH WIND       PRES   REMARKS
BATTLE CREEK   MOSUNNY   78  65  63 S12       29.98R
BENTON HARBOR  MOSUNNY   78  66  66 SE10      29.93S
BIG RAPIDS     CLOUDY    77  68  74 SE8       29.94F
COLDWATER      CLOUDY    74  65  72 S8        29.99R
FREMONT        CLOUDY    75  71  85 SE3       29.94S
HOLLAND        SUNNY     79  67  66 S8        29.94F
GRAND RAPIDS   MOSUNNY   83  66  56 S8        29.95S
IONIA          FAIR      80  66  62 SE6       29.95S
KALAMAZOO      MOSUNNY   78  64  61 S12       29.97R
LUDINGTON      CLOUDY    72  67  85 SE7       29.92S HAZE
MARSHALL       MOSUNNY   77  65  65 S7        29.97S
MOUNT PLEASANT PTSUNNY   79  67  67 S5        29.96S
MUSKEGON       PTSUNNY   76  63  64 S8        29.94S
SOUTH HAVEN    MOSUNNY   77  66  68 S8        29.94S
$$
MIZ016>042-271700-
NORTHERN LOWER MICHIGAN

CITY           SKY/WX    TMP DP  RH WIND       PRES   REMARKS
ALPENA         SUNNY     77  61  57 VRB5      29.97R
BEAVER ISLAND  CLOUDY    75  63  66 W5        29.95S
BELLAIRE       CLOUDY    81  58  46 CALM      29.94R
CADILLAC       CLOUDY    78  64  62 SE7       29.96S
CHARLEVOIX     CLOUDY    76  62  61 NW5       29.97S
FRANKFORT      CLOUDY    80  66  62 SE5       29.91F
GAYLORD        MOSUNNY   79  58  48 SW7       29.97R
GRAYLING       CLOUDY    79  58  48 SE8       29.98R
HARBOR SPRINGS CLOUDY    79  63  59 CALM      29.94R
HOUGHTON LAKE  CLOUDY    79  61  53 S9        29.99R
MANISTEE       MOSUNNY   79  64  61 E8        29.92S
OSCODA         MOSUNNY   65  57  75 E5        29.98S
PELLSTON       SUNNY     78  61  55 SE7       29.96R
ROGERS CITY    SUNNY     70  63  76 NE5       29.98R
TRAVERSE CITY  CLOUDY    77  63  61 NE6       29.91R
$$
MIZ007>008-015-271700-
EASTERN UPPER MICHIGAN

CITY           SKY/WX    TMP DP  RH WIND       PRES   REMARKS
KINROSS          N/A     70  64  83 SE6       29.96R
MACKINAC ISLAN SUNNY     64  61  89 E7        29.97R
NEWBERRY       SUNNY     75  63  66 S7        29.94R
S. S. MARIE    MOSUNNY   67  61  81 SE6       29.96R
MUNISING         N/A     54  51  90 NW5       29.92R
$$
MIZ004>006-011>014-085-271700-
CENTRAL UPPER MICHIGAN

CITY           SKY/WX    TMP DP  RH WIND       PRES   REMARKS
MANISTIQUE     CLOUDY    59  58  97 SE5       29.95R FOG
ESCANABA       CLOUDY    64  55  72 E7        29.91F
MENOMINEE      CLOUDY    66  59  77 E6        29.90S
SAWYER-GWINN   SUNNY     72  59  64 CALM      29.92S
$$
MIZ001>003-009>011-084-271700-
WESTERN UPPER MICHIGAN

CITY           SKY/WX    TMP DP  RH WIND       PRES   REMARKS
IRON MOUNTAIN  CLOUDY    73  58  59 E5        29.89F
HOUGHTON       CLOUDY    63  59  87 CALM      29.91S
COPPER HARBOR    N/A     47  46  97 CALM      29.93R
IRONWOOD       CLOUDY    64  61  88 NE5       29.87F
$$

ABBREVIATIONS USED IN REMARKS
   TC - TEMPERATURE IN CELSIUS
  WCI - WIND CHILL INDEX
   HX - HEAT INDEX
  VSB - VISIBILITY





USA.gov is the U.S. government's official web portal to all federal, state and local government web resources and services.